Time,TemperatureF,DewpointF,PressureIn,WindDirection,WindDirectionDegrees,WindSpeedMPH,WindSpeedGustMPH,Humidity,HourlyPrecipIn,Conditions,Clouds,dailyrainin,SoftwareType,DateUTC
2013-06-02 00:01:00,76.8,0.0,0.00,East,87,0.0,0.0,0,0.00,,,0.00,WUHU216PEETBRO,2013-06-02 05:01:00,
2013-06-02 00:06:00,76.8,0.0,0.00,SW,221,0.0,0.8,0,0.00,,,0.00,WUHU216PEETBRO,2013-06-02 05:06:00,
2013-06-02 00:11:00,75.9,0.0,0.00,SW,221,0.0,0.8,0,0.00,,,0.00,WUHU216PEETBRO,2013-06-02 05:11:00,
2013-06-02 00:16:00,76.2,0.0,0.00,SW,221,0.0,0.0,0,0.00,,,0.00,WUHU216PEETBRO,2013-06-02 05:16:00,
2013-06-02 00:21:00,74.9,0.0,0.00,SSE,156,0.0,1.9,0,0.00,,,0.00,WUHU216PEETBRO,2013-06-02 05:21:00,
2013-06-02 00:25:00,74.9,0.0,0.00,SSE,156,0.0,1.9,0,0.00,,,0.00,WUHU216PEETBRO,2013-06-02 05:25:00,
2013-06-02 00:30:00,74.6,0.0,0.00,South,176,1.1,2.1,0,0.00,,,0.00,WUHU216PEETBRO,2013-06-02 05:30:00,
2013-06-02 00:35:00,75.9,0.0,0.00,WSW,248,2.2,2.9,0,0.00,,,0.00,WUHU216PEETBRO,2013-06-02 05:35:00,
2013-06-02 00:40:00,75.9,0.0,0.00,WSW,254,0.0,2.9,0,0.00,,,0.00,WUHU216PEETBRO,2013-06-02 05:40:00,
2013-06-02 00:45:00,76.2,0.0,0.00,West,262,2.9,4.0,0,0.00,,,0.00,WUHU216PEETBRO,2013-06-02 05:45:00,
2013-06-02 00:50:00,75.9,0.0,0.00,WSW,251,3.4,5.3,0,0.00,,,0.00,WUHU216PEETBRO,2013-06-02 05:50:00,
2013-06-02 00:55:00,75.5,0.0,0.00,South,180,3.8,5.3,0,0.00,,,0.00,WUHU216PEETBRO,2013-06-02 05:55:00,
2013-06-02 01:00:00,75.5,0.0,0.00,SSE,153,4.5,5.8,0,0.00,,,0.00,WUHU216PEETBRO,2013-06-02 06:00:00,
2013-06-02 01:05:00,76.5,0.0,0.00,South,189,2.7,5.8,0,0.00,,,0.00,WUHU216PEETBRO,2013-06-02 06:05:00,
2013-06-02 01:10:00,75.9,0.0,0.00,SSW,208,3.8,6.0,0,0.00,,,0.00,WUHU216PEETBRO,2013-06-02 06:10:00,
2013-06-02 01:15:00,75.9,0.0,0.00,WSW,256,2.1,6.0,0,0.00,,,0.00,WUHU216PEETBRO,2013-06-02 06:15:00,
2013-06-02 01:20:00,75.2,0.0,0.00,SW,214,2.9,5.2,0,0.00,,,0.00,WUHU216PEETBRO,2013-06-02 06:20:00,
2013-06-02 01:25:00,76.2,0.0,0.00,SSW,200,0.0,5.2,0,0.00,,,0.00,WUHU216PEETBRO,2013-06-02 06:25:00,
2013-06-02 01:30:00,76.2,0.0,0.00,West,272,3.4,3.9,0,0.00,,,0.00,WUHU216PEETBRO,2013-06-02 06:30:00,
2013-06-02 01:35:00,75.9,0.0,0.00,WSW,247,3.0,5.5,0,0.00,,,0.00,WUHU216PEETBRO,2013-06-02 06:35:00,
2013-06-02 01:40:00,75.9,0.0,0.00,WSW,252,1.6,5.5,0,0.00,,,0.00,WUHU216PEETBRO,2013-06-02 06:40:00,
2013-06-02 01:45:00,76.2,0.0,0.00,West,275,0.0,4.4,0,0.00,,,0.00,WUHU216PEETBRO,2013-06-02 06:45:00,
2013-06-02 01:50:00,75.9,0.0,0.00,SSW,211,0.0,4.3,0,0.00,,,0.00,WUHU216PEETBRO,2013-06-02 06:50:00,
2013-06-02 01:55:00,75.9,0.0,0.00,West,269,4.3,5.0,0,0.00,,,0.00,WUHU216PEETBRO,2013-06-02 06:55:00,
2013-06-02 02:00:00,76.2,0.0,0.00,West,280,1.4,5.0,0,0.00,,,0.00,WUHU216PEETBRO,2013-06-02 07:00:00,
2013-06-02 02:05:00,75.9,0.0,0.00,SSW,207,0.0,4.9,0,0.00,,,0.00,WUHU216PEETBRO,2013-06-02 07:05:00,
2013-06-02 02:10:00,75.9,0.0,0.00,WSW,249,0.0,4.9,0,0.00,,,0.00,WUHU216PEETBRO,2013-06-02 07:10:00,
2013-06-02 02:15:00,76.2,0.0,0.00,WSW,249,0.0,1.8,0,0.00,,,0.00,WUHU216PEETBRO,2013-06-02 07:15:00,
2013-06-02 02:20:00,75.5,0.0,0.00,SSE,152,1.0,2.1,0,0.00,,,0.00,WUHU216PEETBRO,2013-06-02 07:20:00,
2013-06-02 02:25:00,75.9,0.0,0.00,SSW,203,0.0,3.6,0,0.00,,,0.00,WUHU216PEETBRO,2013-06-02 07:25:00,
2013-06-02 02:30:00,74.9,0.0,0.00,SSW,203,0.0,3.6,0,0.00,,,0.00,WUHU216PEETBRO,2013-06-02 07:30:00,
2013-06-02 02:35:00,74.9,0.0,0.00,SSW,203,0.0,0.0,0,0.00,,,0.00,WUHU216PEETBRO,2013-06-02 07:35:00,
2013-06-02 02:40:00,74.9,0.0,0.00,SSW,203,0.0,0.0,0,0.00,,,0.00,WUHU216PEETBRO,2013-06-02 07:40:00,
2013-06-02 02:45:00,74.9,0.0,0.00,SSW,203,0.0,0.0,0,0.00,,,0.00,WUHU216PEETBRO,2013-06-02 07:45:00,
2013-06-02 02:50:00,74.9,0.0,0.00,SSW,203,0.0,0.0,0,0.00,,,0.00,WUHU216PEETBRO,2013-06-02 07:50:00,
2013-06-02 02:55:00,75.2,0.0,0.00,SSW,203,0.0,0.0,0,0.00,,,0.00,WUHU216PEETBRO,2013-06-02 07:55:00,
2013-06-02 03:00:00,75.5,0.0,0.00,SSW,203,0.0,0.0,0,0.00,,,0.00,WUHU216PEETBRO,2013-06-02 08:00:00,
2013-06-02 03:05:00,75.5,0.0,0.00,ESE,122,1.9,3.0,0,0.00,,,0.00,WUHU216PEETBRO,2013-06-02 08:05:00,
2013-06-02 03:10:00,74.9,0.0,0.00,East,97,3.1,3.7,0,0.00,,,0.00,WUHU216PEETBRO,2013-06-02 08:10:00,
2013-06-02 03:15:00,75.2,0.0,0.00,ESE,103,0.0,6.0,0,0.00,,,0.00,WUHU216PEETBRO,2013-06-02 08:15:00,
2013-06-02 03:20:00,75.2,0.0,0.00,ENE,77,0.0,6.0,0,0.00,,,0.00,WUHU216PEETBRO,2013-06-02 08:20:00,
2013-06-02 03:25:00,74.9,0.0,0.00,ENE,77,0.0,5.3,0,0.00,,,0.00,WUHU216PEETBRO,2013-06-02 08:25:00,
2013-06-02 03:30:00,74.9,0.0,0.00,NNE,14,0.0,2.4,0,0.00,,,0.00,WUHU216PEETBRO,2013-06-02 08:30:00,
2013-06-02 03:35:00,74.9,0.0,0.00,North,8,0.4,3.5,0,0.00,,,0.00,WUHU216PEETBRO,2013-06-02 08:35:00,
2013-06-02 03:40:00,74.9,0.0,0.00,North,7,1.6,3.5,0,0.00,,,0.00,WUHU216PEETBRO,2013-06-02 08:40:00,
2013-06-02 03:45:00,75.2,0.0,0.00,North,359,0.0,2.7,0,0.00,,,0.00,WUHU216PEETBRO,2013-06-02 08:45:00,
2013-06-02 03:50:00,75.2,0.0,0.00,NE,52,0.0,2.4,0,0.00,,,0.00,WUHU216PEETBRO,2013-06-02 08:50:00,
2013-06-02 03:55:00,74.9,0.0,0.00,NE,52,0.0,0.7,0,0.00,,,0.00,WUHU216PEETBRO,2013-06-02 08:55:00,
2013-06-02 04:00:00,74.9,0.0,0.00,NE,52,0.0,0.0,0,0.00,,,0.00,WUHU216PEETBRO,2013-06-02 09:00:00,
2013-06-02 04:05:00,75.9,0.0,0.00,NE,52,0.0,0.0,0,0.00,,,0.00,WUHU216PEETBRO,2013-06-02 09:05:00,
2013-06-02 04:10:00,75.2,0.0,0.00,NE,52,0.0,0.0,0,0.00,,,0.00,WUHU216PEETBRO,2013-06-02 09:10:00,
2013-06-02 04:15:00,75.9,0.0,0.00,NE,52,0.0,0.0,0,0.00,,,0.00,WUHU216PEETBRO,2013-06-02 09:15:00,
2013-06-02 04:20:00,75.2,0.0,0.00,ESE,115,4.0,4.5,0,0.00,,,0.00,WUHU216PEETBRO,2013-06-02 09:20:00,
2013-06-02 04:25:00,75.9,0.0,0.00,ENE,71,0.0,4.7,0,0.00,,,0.00,WUHU216PEETBRO,2013-06-02 09:25:00,
2013-06-02 04:30:00,75.9,0.0,0.00,ESE,114,0.0,4.7,0,0.00,,,0.00,WUHU216PEETBRO,2013-06-02 09:30:00,
2013-06-02 04:35:00,74.6,0.0,0.00,ESE,114,0.0,2.3,0,0.02,,,0.02,WUHU216PEETBRO,2013-06-02 09:35:00,
2013-06-02 04:40:00,74.6,0.0,0.00,ESE,112,3.4,5.7,0,0.05,,,0.05,WUHU216PEETBRO,2013-06-02 09:40:00,
2013-06-02 04:45:00,74.9,0.0,0.00,ENE,67,1.6,5.7,0,0.05,,,0.05,WUHU216PEETBRO,2013-06-02 09:45:00,
2013-06-02 04:50:00,70.2,0.0,0.00,North,1,10.7,14.4,0,0.05,,,0.05,WUHU216PEETBRO,2013-06-02 09:50:00,
2013-06-02 04:55:00,69.0,0.0,0.00,NE,36,5.4,14.7,0,0.12,,,0.12,WUHU216PEETBRO,2013-06-02 09:55:00,
2013-06-02 05:00:00,68.9,0.0,0.00,ESE,103,7.3,14.7,0,0.26,,,0.26,WUHU216PEETBRO,2013-06-02 10:00:00,
2013-06-02 05:05:00,68.9,0.0,0.00,ENE,60,3.2,14.5,0,0.33,,,0.33,WUHU216PEETBRO,2013-06-02 10:05:00,
2013-06-02 05:10:00,68.7,0.0,0.00,NE,43,5.2,9.4,0,0.52,,,0.52,WUHU216PEETBRO,2013-06-02 10:10:00,
2013-06-02 05:15:00,68.7,0.0,0.00,North,4,7.0,12.7,0,0.90,,,0.90,WUHU216PEETBRO,2013-06-02 10:15:00,
2013-06-02 05:20:00,68.2,0.0,0.00,NNE,19,5.4,16.8,0,0.95,,,0.95,WUHU216PEETBRO,2013-06-02 10:20:00,
2013-06-02 05:25:00,68.7,0.0,0.00,ENE,67,7.5,16.8,0,0.98,,,0.98,WUHU216PEETBRO,2013-06-02 10:25:00,
2013-06-02 05:30:00,69.1,0.0,0.00,East,80,7.0,11.1,0,0.99,,,0.99,WUHU216PEETBRO,2013-06-02 10:30:00,
2013-06-02 05:35:00,69.0,0.0,0.00,NE,52,3.4,12.6,0,0.97,,,0.99,WUHU216PEETBRO,2013-06-02 10:35:00,
2013-06-02 05:40:00,68.4,0.0,0.00,NNE,15,1.2,12.6,0,0.95,,,1.00,WUHU216PEETBRO,2013-06-02 10:40:00,
2013-06-02 05:45:00,68.5,0.0,0.00,North,350,0.0,5.9,0,0.97,,,1.02,WUHU216PEETBRO,2013-06-02 10:45:00,
2013-06-02 05:50:00,68.6,0.0,0.00,NNE,28,0.0,5.3,0,0.99,,,1.04,WUHU216PEETBRO,2013-06-02 10:50:00,
2013-06-02 05:55:00,69.1,0.0,0.00,West,265,2.3,4.0,0,0.94,,,1.06,WUHU216PEETBRO,2013-06-02 10:55:00,
2013-06-02 06:00:00,68.6,0.0,0.00,WSW,247,0.0,2.7,0,0.81,,,1.07,WUHU216PEETBRO,2013-06-02 11:00:00,
2013-06-02 06:05:00,68.1,0.0,0.00,WSW,247,0.0,2.7,0,0.75,,,1.08,WUHU216PEETBRO,2013-06-02 11:05:00,
2013-06-02 06:10:00,68.6,0.0,0.00,WSW,247,0.0,0.0,0,0.57,,,1.09,WUHU216PEETBRO,2013-06-02 11:10:00,
2013-06-02 06:15:00,68.7,0.0,0.00,WSW,247,0.0,0.0,0,0.20,,,1.10,WUHU216PEETBRO,2013-06-02 11:15:00,
2013-06-02 06:20:00,68.7,0.0,0.00,WSW,247,0.0,0.0,0,0.16,,,1.11,WUHU216PEETBRO,2013-06-02 11:20:00,
2013-06-02 06:25:00,68.9,0.0,0.00,WSW,247,0.0,0.0,0,0.13,,,1.11,WUHU216PEETBRO,2013-06-02 11:25:00,
2013-06-02 06:30:00,68.4,0.0,0.00,WSW,247,0.0,0.0,0,0.13,,,1.12,WUHU216PEETBRO,2013-06-02 11:30:00,
2013-06-02 06:35:00,68.6,0.0,0.00,SSE,158,0.0,4.0,0,0.13,,,1.12,WUHU216PEETBRO,2013-06-02 11:35:00,
2013-06-02 06:40:00,68.5,0.0,0.00,ESE,107,6.1,9.2,0,0.13,,,1.13,WUHU216PEETBRO,2013-06-02 11:40:00,
2013-06-02 06:45:00,68.6,0.0,0.00,NE,49,5.1,9.2,0,0.11,,,1.13,WUHU216PEETBRO,2013-06-02 11:45:00,
2013-06-02 06:50:00,68.7,0.0,0.00,NE,56,6.8,12.6,0,0.09,,,1.13,WUHU216PEETBRO,2013-06-02 11:50:00,
2013-06-02 06:55:00,68.5,0.0,0.00,ENE,73,0.0,12.6,0,0.07,,,1.13,WUHU216PEETBRO,2013-06-02 11:55:00,
2013-06-02 07:00:00,68.9,0.0,0.00,WSW,238,0.0,11.1,0,0.07,,,1.14,WUHU216PEETBRO,2013-06-02 12:00:00,
2013-06-02 07:05:00,67.6,0.0,0.00,SE,125,0.0,4.8,0,0.06,,,1.14,WUHU216PEETBRO,2013-06-02 12:05:00,
2013-06-02 07:10:00,68.7,0.0,0.00,SSW,201,4.0,6.7,0,0.05,,,1.14,WUHU216PEETBRO,2013-06-02 12:10:00,
2013-06-02 07:15:00,68.5,0.0,0.00,East,93,5.7,7.0,0,0.04,,,1.14,WUHU216PEETBRO,2013-06-02 12:15:00,
2013-06-02 07:20:00,68.9,0.0,0.00,WSW,237,7.7,10.7,0,0.03,,,1.14,WUHU216PEETBRO,2013-06-02 12:20:00,
2013-06-02 07:25:00,68.6,0.0,0.00,SSW,206,7.1,10.7,0,0.03,,,1.14,WUHU216PEETBRO,2013-06-02 12:25:00,
2013-06-02 07:30:00,68.6,0.0,0.00,NW,321,7.0,10.4,0,0.02,,,1.14,WUHU216PEETBRO,2013-06-02 12:30:00,
2013-06-02 07:35:00,68.4,0.0,0.00,NW,313,20.1,20.1,0,0.02,,,1.14,WUHU216PEETBRO,2013-06-02 12:35:00,
2013-06-02 07:40:00,69.3,0.0,0.00,North,5,2.7,20.1,0,0.01,,,1.14,WUHU216PEETBRO,2013-06-02 12:40:00,
2013-06-02 07:45:00,69.5,0.0,0.00,NNW,333,0.0,20.1,0,0.01,,,1.14,WUHU216PEETBRO,2013-06-02 12:45:00,
2013-06-02 07:50:00,69.5,0.0,0.00,West,273,0.0,7.8,0,0.01,,,1.14,WUHU216PEETBRO,2013-06-02 12:50:00,
2013-06-02 07:55:00,70.8,0.0,0.00,West,273,0.0,3.3,0,0.01,,,1.14,WUHU216PEETBRO,2013-06-02 12:55:00,
2013-06-02 08:00:00,69.5,0.0,0.00,East,79,2.7,9.4,0,0.00,,,1.14,WUHU216PEETBRO,2013-06-02 13:00:00,
2013-06-02 08:05:00,69.5,0.0,0.00,NNW,337,0.7,9.4,0,0.00,,,1.14,WUHU216PEETBRO,2013-06-02 13:05:00,
2013-06-02 08:10:00,70.6,0.0,0.00,NE,40,4.3,9.3,0,0.00,,,1.14,WUHU216PEETBRO,2013-06-02 13:10:00,
2013-06-02 08:15:00,70.5,0.0,0.00,NNW,344,0.0,7.1,0,0.00,,,1.14,WUHU216PEETBRO,2013-06-02 13:15:00,
2013-06-02 08:20:00,70.5,0.0,0.00,NE,55,0.0,7.1,0,0.00,,,1.14,WUHU216PEETBRO,2013-06-02 13:20:00,
2013-06-02 08:25:00,70.5,0.0,0.00,South,182,1.6,5.8,0,0.00,,,1.14,WUHU216PEETBRO,2013-06-02 13:25:00,
2013-06-02 08:30:00,71.1,0.0,0.00,East,98,3.5,5.0,0,0.00,,,1.14,WUHU216PEETBRO,2013-06-02 13:30:00,
2013-06-02 08:35:00,71.7,0.0,0.00,SSE,155,0.0,5.0,0,0.00,,,1.14,WUHU216PEETBRO,2013-06-02 13:35:00,
2013-06-02 08:40:00,72.6,0.0,0.00,SSE,155,0.0,4.7,0,0.00,,,1.14,WUHU216PEETBRO,2013-06-02 13:40:00,
2013-06-02 08:45:00,73.3,0.0,0.00,North,358,1.0,3.3,0,0.00,,,1.14,WUHU216PEETBRO,2013-06-02 13:45:00,
2013-06-02 08:50:00,73.3,0.0,0.00,West,275,0.2,3.3,0,0.00,,,1.14,WUHU216PEETBRO,2013-06-02 13:50:00,
2013-06-02 08:55:00,73.3,0.0,0.00,West,279,0.5,3.6,0,0.00,,,1.14,WUHU216PEETBRO,2013-06-02 13:55:00,
2013-06-02 09:00:00,73.1,0.0,0.00,WNW,295,1.1,6.7,0,0.00,,,1.14,WUHU216PEETBRO,2013-06-02 14:00:00,
2013-06-02 09:05:00,73.7,0.0,0.00,West,265,1.7,7.6,0,0.00,,,1.14,WUHU216PEETBRO,2013-06-02 14:05:00,
2013-06-02 09:10:00,74.9,0.0,0.00,SSW,201,2.1,7.6,0,0.00,,,1.14,WUHU216PEETBRO,2013-06-02 14:10:00,
2013-06-02 09:15:00,75.2,0.0,0.00,South,189,0.0,2.7,0,0.00,,,1.14,WUHU216PEETBRO,2013-06-02 14:15:00,
2013-06-02 09:20:00,77.1,0.0,0.00,SSE,148,2.2,2.7,0,0.00,,,1.14,WUHU216PEETBRO,2013-06-02 14:20:00,
2013-06-02 09:25:00,75.9,0.0,0.00,ESE,114,0.0,4.5,0,0.00,,,1.14,WUHU216PEETBRO,2013-06-02 14:25:00,
2013-06-02 09:30:00,78.7,0.0,0.00,SE,138,0.0,4.5,0,0.00,,,1.14,WUHU216PEETBRO,2013-06-02 14:30:00,
2013-06-02 09:35:00,79.2,0.0,0.00,West,266,1.2,1.6,0,0.00,,,1.14,WUHU216PEETBRO,2013-06-02 14:35:00,
2013-06-02 09:40:00,80.5,0.0,0.00,North,2,4.2,4.4,0,0.00,,,1.14,WUHU216PEETBRO,2013-06-02 14:40:00,
2013-06-02 09:45:00,79.5,0.0,0.00,NW,310,2.4,4.4,0,0.00,,,1.14,WUHU216PEETBRO,2013-06-02 14:45:00,
2013-06-02 09:50:00,80.6,0.0,0.00,North,359,2.2,4.0,0,0.00,,,1.14,WUHU216PEETBRO,2013-06-02 14:50:00,
2013-06-02 09:55:00,79.5,0.0,0.00,North,350,2.7,4.7,0,0.00,,,1.14,WUHU216PEETBRO,2013-06-02 14:55:00,
2013-06-02 10:00:00,80.5,0.0,0.00,WNW,293,0.0,4.7,0,0.00,,,1.14,WUHU216PEETBRO,2013-06-02 15:00:00,
2013-06-02 10:05:00,78.5,0.0,0.00,NW,314,5.2,8.9,0,0.00,,,1.14,WUHU216PEETBRO,2013-06-02 15:05:00,
2013-06-02 10:10:00,84.4,0.0,0.00,NW,326,1.7,8.9,0,0.00,,,1.14,WUHU216PEETBRO,2013-06-02 15:10:00,
2013-06-02 10:15:00,85.5,0.0,0.00,NW,324,5.7,7.6,0,0.00,,,1.14,WUHU216PEETBRO,2013-06-02 15:15:00,
2013-06-02 10:20:00,83.2,0.0,0.00,NW,309,5.0,7.1,0,0.00,,,1.14,WUHU216PEETBRO,2013-06-02 15:20:00,
2013-06-02 10:25:00,83.9,0.0,0.00,WNW,295,2.9,6.4,0,0.00,,,1.14,WUHU216PEETBRO,2013-06-02 15:25:00,
2013-06-02 10:30:00,79.2,0.0,0.00,NW,324,4.2,7.1,0,0.00,,,1.14,WUHU216PEETBRO,2013-06-02 15:30:00,
2013-06-02 10:35:00,81.7,0.0,0.00,NNW,338,3.6,7.1,0,0.00,,,1.14,WUHU216PEETBRO,2013-06-02 15:35:00,
2013-06-02 10:40:00,85.1,0.0,0.00,WSW,254,0.0,5.7,0,0.00,,,1.14,WUHU216PEETBRO,2013-06-02 15:40:00,
2013-06-02 10:45:00,84.4,0.0,0.00,North,354,3.2,5.7,0,0.00,,,1.14,WUHU216PEETBRO,2013-06-02 15:45:00,
2013-06-02 10:50:00,86.2,0.0,0.00,WSW,247,2.9,5.7,0,0.00,,,1.14,WUHU216PEETBRO,2013-06-02 15:50:00,
2013-06-02 10:55:00,84.4,0.0,0.00,WNW,292,1.6,4.9,0,0.00,,,1.14,WUHU216PEETBRO,2013-06-02 15:55:00,
2013-06-02 11:00:00,83.4,0.0,0.00,NNW,327,1.9,5.0,0,0.00,,,1.14,WUHU216PEETBRO,2013-06-02 16:00:00,
2013-06-02 11:05:00,82.1,0.0,0.00,NW,319,2.0,5.0,0,0.00,,,1.14,WUHU216PEETBRO,2013-06-02 16:05:00,
2013-06-02 11:10:00,83.5,0.0,0.00,North,359,6.2,6.2,0,0.00,,,1.14,WUHU216PEETBRO,2013-06-02 16:10:00,
2013-06-02 11:15:00,83.8,0.0,0.00,North,5,2.4,6.5,0,0.00,,,1.14,WUHU216PEETBRO,2013-06-02 16:15:00,
2013-06-02 11:20:00,83.9,0.0,0.00,North,359,3.9,6.5,0,0.00,,,1.14,WUHU216PEETBRO,2013-06-02 16:20:00,
2013-06-02 11:25:00,84.7,0.0,0.00,North,2,4.4,7.4,0,0.00,,,1.14,WUHU216PEETBRO,2013-06-02 16:25:00,
2013-06-02 11:29:00,84.7,0.0,0.00,North,359,3.2,9.6,0,0.00,,,1.14,WUHU216PEETBRO,2013-06-02 16:29:00,
2013-06-02 11:35:00,83.5,0.0,0.00,North,352,5.2,9.6,0,0.00,,,1.14,WUHU216PEETBRO,2013-06-02 16:35:00,
2013-06-02 11:40:00,84.4,0.0,0.00,NNE,16,4.2,6.5,0,0.00,,,1.14,WUHU216PEETBRO,2013-06-02 16:40:00,
2013-06-02 11:45:00,86.9,0.0,0.00,WNW,303,3.5,7.0,0,0.00,,,1.14,WUHU216PEETBRO,2013-06-02 16:45:00,
2013-06-02 11:50:00,85.5,0.0,0.00,NW,310,3.2,7.5,0,0.00,,,1.14,WUHU216PEETBRO,2013-06-02 16:50:00,
2013-06-02 11:55:00,86.9,0.0,0.00,NW,313,2.5,7.5,0,0.00,,,1.14,WUHU216PEETBRO,2013-06-02 16:55:00,
2013-06-02 12:00:00,89.1,0.0,0.00,WSW,249,0.6,5.8,0,0.00,,,1.14,WUHU216PEETBRO,2013-06-02 17:00:00,
2013-06-02 12:04:00,90.9,0.0,0.00,SW,227,1.9,5.2,0,0.00,,,1.14,WUHU216PEETBRO,2013-06-02 17:04:00,
2013-06-02 12:09:00,90.0,0.0,0.00,NNE,22,0.0,3.9,0,0.00,,,1.14,WUHU216PEETBRO,2013-06-02 17:09:00,
2013-06-02 12:14:00,89.2,0.0,0.00,NNE,15,2.8,6.8,0,0.00,,,1.14,WUHU216PEETBRO,2013-06-02 17:14:00,
2013-06-02 12:19:00,88.8,0.0,0.00,South,177,0.6,6.8,0,0.00,,,1.14,WUHU216PEETBRO,2013-06-02 17:19:00,
2013-06-02 12:24:00,95.1,0.0,0.00,NNW,341,3.6,4.5,0,0.00,,,1.14,WUHU216PEETBRO,2013-06-02 17:24:00,
2013-06-02 12:29:00,97.0,0.0,0.00,NW,320,6.5,6.5,0,0.00,,,1.14,WUHU216PEETBRO,2013-06-02 17:29:00,
2013-06-02 12:34:00,90.0,0.0,0.00,North,359,5.4,8.3,0,0.00,,,1.14,WUHU216PEETBRO,2013-06-02 17:34:00,
2013-06-02 12:39:00,91.8,0.0,0.00,NNE,23,3.4,8.3,0,0.00,,,1.14,WUHU216PEETBRO,2013-06-02 17:39:00,
2013-06-02 12:44:00,96.0,0.0,0.00,West,271,3.7,6.9,0,0.00,,,1.14,WUHU216PEETBRO,2013-06-02 17:44:00,
2013-06-02 12:49:00,89.3,0.0,0.00,East,87,1.4,6.9,0,0.00,,,1.14,WUHU216PEETBRO,2013-06-02 17:49:00,
2013-06-02 12:54:00,98.9,0.0,0.00,NW,307,2.1,4.4,0,0.00,,,1.14,WUHU216PEETBRO,2013-06-02 17:54:00,
2013-06-02 12:59:00,93.9,0.0,0.00,NW,317,2.8,4.6,0,0.00,,,1.14,WUHU216PEETBRO,2013-06-02 17:59:00,
2013-06-02 13:04:00,92.1,0.0,0.00,NNW,330,1.1,6.0,0,0.00,,,1.14,WUHU216PEETBRO,2013-06-02 18:04:00,
2013-06-02 13:09:00,92.6,0.0,0.00,West,263,3.0,6.0,0,0.00,,,1.14,WUHU216PEETBRO,2013-06-02 18:09:00,
2013-06-02 13:14:00,94.2,0.0,0.00,NW,319,0.9,4.5,0,0.00,,,1.14,WUHU216PEETBRO,2013-06-02 18:14:00,
2013-06-02 13:19:00,97.4,0.0,0.00,West,259,0.6,3.7,0,0.00,,,1.14,WUHU216PEETBRO,2013-06-02 18:19:00,
2013-06-02 13:24:00,93.9,0.0,0.00,West,269,1.2,4.3,0,0.00,,,1.14,WUHU216PEETBRO,2013-06-02 18:24:00,
2013-06-02 13:29:00,92.1,0.0,0.00,North,351,1.4,4.3,0,0.00,,,1.14,WUHU216PEETBRO,2013-06-02 18:29:00,
2013-06-02 13:34:00,92.1,0.0,0.00,NW,307,0.0,4.9,0,0.00,,,1.14,WUHU216PEETBRO,2013-06-02 18:34:00,
2013-06-02 13:39:00,92.6,0.0,0.00,WNW,297,0.0,4.9,0,0.00,,,1.14,WUHU216PEETBRO,2013-06-02 18:39:00,
2013-06-02 13:44:00,92.1,0.0,0.00,NNW,327,1.9,5.5,0,0.00,,,1.14,WUHU216PEETBRO,2013-06-02 18:44:00,
2013-06-02 13:49:00,97.0,0.0,0.00,NNW,328,1.6,5.5,0,0.00,,,1.14,WUHU216PEETBRO,2013-06-02 18:49:00,
2013-06-02 13:54:00,94.7,0.0,0.00,WNW,302,2.2,6.8,0,0.00,,,1.14,WUHU216PEETBRO,2013-06-02 18:54:00,
2013-06-02 13:59:00,95.1,0.0,0.00,WNW,295,1.8,6.8,0,0.00,,,1.14,WUHU216PEETBRO,2013-06-02 18:59:00,
2013-06-02 14:04:00,99.8,0.0,0.00,WNW,293,1.5,7.3,0,0.00,,,1.14,WUHU216PEETBRO,2013-06-02 19:04:00,
2013-06-02 14:09:00,96.0,0.0,0.00,East,100,1.4,7.3,0,0.00,,,1.14,WUHU216PEETBRO,2013-06-02 19:09:00,
2013-06-02 14:14:00,95.5,0.0,0.00,NW,311,2.2,6.5,0,0.00,,,1.14,WUHU216PEETBRO,2013-06-02 19:14:00,
2013-06-02 14:19:00,94.2,0.0,0.00,West,271,2.7,6.5,0,0.00,,,1.14,WUHU216PEETBRO,2013-06-02 19:19:00,
2013-06-02 14:24:00,91.8,0.0,0.00,WNW,286,5.2,5.8,0,0.00,,,1.14,WUHU216PEETBRO,2013-06-02 19:24:00,
2013-06-02 14:29:00,91.3,0.0,0.00,NW,311,2.2,5.2,0,0.00,,,1.14,WUHU216PEETBRO,2013-06-02 19:29:00,
2013-06-02 14:34:00,90.0,0.0,0.00,NNE,29,3.5,6.7,0,0.00,,,1.14,WUHU216PEETBRO,2013-06-02 19:34:00,
2013-06-02 14:39:00,88.5,0.0,0.00,North,354,5.0,9.1,0,0.00,,,1.14,WUHU216PEETBRO,2013-06-02 19:39:00,
2013-06-02 14:44:00,88.8,0.0,0.00,NW,314,2.2,9.1,0,0.00,,,1.14,WUHU216PEETBRO,2013-06-02 19:44:00,
2013-06-02 14:49:00,86.2,0.0,0.00,NNW,328,5.8,6.9,0,0.00,,,1.14,WUHU216PEETBRO,2013-06-02 19:49:00,
2013-06-02 14:54:00,85.5,0.0,0.00,WNW,292,2.2,7.5,0,0.00,,,1.14,WUHU216PEETBRO,2013-06-02 19:54:00,
2013-06-02 14:59:00,87.7,0.0,0.00,NW,326,3.6,7.5,0,0.00,,,1.14,WUHU216PEETBRO,2013-06-02 19:59:00,
2013-06-02 15:04:00,89.2,0.0,0.00,NE,42,3.5,7.1,0,0.00,,,1.14,WUHU216PEETBRO,2013-06-02 20:04:00,
2013-06-02 15:09:00,89.7,0.0,0.00,North,5,3.7,7.1,0,0.00,,,1.14,WUHU216PEETBRO,2013-06-02 20:09:00,
2013-06-02 15:14:00,89.9,0.0,0.00,NW,304,3.0,6.1,0,0.00,,,1.14,WUHU216PEETBRO,2013-06-02 20:14:00,
2013-06-02 15:19:00,88.5,0.0,0.00,NW,316,0.6,7.3,0,0.00,,,1.14,WUHU216PEETBRO,2013-06-02 20:19:00,
2013-06-02 15:24:00,89.7,0.0,0.00,NNE,22,0.6,7.3,0,0.00,,,1.14,WUHU216PEETBRO,2013-06-02 20:24:00,
2013-06-02 15:29:00,92.1,0.0,0.00,NW,324,1.7,4.7,0,0.00,,,1.14,WUHU216PEETBRO,2013-06-02 20:29:00,
2013-06-02 15:34:00,90.6,0.0,0.00,NNW,343,4.8,5.7,0,0.00,,,1.14,WUHU216PEETBRO,2013-06-02 20:34:00,
2013-06-02 15:39:00,92.6,0.0,0.00,NW,320,3.9,5.7,0,0.00,,,1.14,WUHU216PEETBRO,2013-06-02 20:39:00,
2013-06-02 15:44:00,93.0,0.0,0.00,NW,306,2.2,5.5,0,0.00,,,1.14,WUHU216PEETBRO,2013-06-02 20:44:00,
2013-06-02 15:49:00,89.9,0.0,0.00,NNE,25,0.0,5.5,0,0.00,,,1.14,WUHU216PEETBRO,2013-06-02 20:49:00,
2013-06-02 15:54:00,86.6,0.0,0.00,WNW,290,2.2,4.5,0,0.00,,,1.14,WUHU216PEETBRO,2013-06-02 20:54:00,
2013-06-02 15:59:00,88.5,0.0,0.00,NW,324,1.4,5.0,0,0.00,,,1.14,WUHU216PEETBRO,2013-06-02 20:59:00,
2013-06-02 16:04:00,88.5,0.0,0.00,WNW,283,0.0,5.0,0,0.00,,,1.14,WUHU216PEETBRO,2013-06-02 21:04:00,
2013-06-02 16:09:00,87.7,0.0,0.00,NW,320,1.7,3.7,0,0.00,,,1.14,WUHU216PEETBRO,2013-06-02 21:09:00,
2013-06-02 16:14:00,86.6,0.0,0.00,NNW,331,2.2,3.2,0,0.00,,,1.14,WUHU216PEETBRO,2013-06-02 21:14:00,
2013-06-02 16:19:00,85.5,0.0,0.00,NNW,338,1.3,3.4,0,0.00,,,1.14,WUHU216PEETBRO,2013-06-02 21:19:00,
2013-06-02 16:24:00,84.6,0.0,0.00,SW,231,0.7,3.4,0,0.00,,,1.14,WUHU216PEETBRO,2013-06-02 21:24:00,
2013-06-02 16:29:00,85.1,0.0,0.00,SW,234,2.0,4.7,0,0.00,,,1.14,WUHU216PEETBRO,2013-06-02 21:29:00,
2013-06-02 16:34:00,88.8,0.0,0.00,WSW,254,1.5,4.7,0,0.00,,,1.14,WUHU216PEETBRO,2013-06-02 21:34:00,
2013-06-02 16:39:00,85.8,0.0,0.00,SW,221,3.5,4.6,0,0.00,,,1.14,WUHU216PEETBRO,2013-06-02 21:39:00,
2013-06-02 16:44:00,86.6,0.0,0.00,SW,215,2.7,4.9,0,0.00,,,1.14,WUHU216PEETBRO,2013-06-02 21:44:00,
2013-06-02 16:49:00,85.9,0.0,0.00,West,259,2.5,4.9,0,0.00,,,1.14,WUHU216PEETBRO,2013-06-02 21:49:00,
2013-06-02 16:54:00,85.5,0.0,0.00,South,173,0.0,4.8,0,0.00,,,1.14,WUHU216PEETBRO,2013-06-02 21:54:00,
2013-06-02 16:59:00,86.6,0.0,0.00,SW,225,2.5,4.2,0,0.00,,,1.14,WUHU216PEETBRO,2013-06-02 21:59:00,
2013-06-02 17:04:00,88.8,0.0,0.00,WNW,295,1.2,4.2,0,0.00,,,1.14,WUHU216PEETBRO,2013-06-02 22:04:00,
2013-06-02 17:09:00,90.6,0.0,0.00,NW,316,3.0,4.7,0,0.00,,,1.14,WUHU216PEETBRO,2013-06-02 22:09:00,
2013-06-02 17:14:00,90.0,0.0,0.00,NNE,32,1.4,5.1,0,0.00,,,1.14,WUHU216PEETBRO,2013-06-02 22:14:00,
2013-06-02 17:19:00,90.0,0.0,0.00,North,351,1.7,5.1,0,0.00,,,1.14,WUHU216PEETBRO,2013-06-02 22:19:00,
2013-06-02 17:24:00,88.8,0.0,0.00,WSW,244,2.2,4.0,0,0.00,,,1.14,WUHU216PEETBRO,2013-06-02 22:24:00,
2013-06-02 17:29:00,85.8,0.0,0.00,SSW,210,1.6,4.4,0,0.00,,,1.14,WUHU216PEETBRO,2013-06-02 22:29:00,
2013-06-02 17:34:00,86.6,0.0,0.00,East,86,1.2,4.4,0,0.00,,,1.14,WUHU216PEETBRO,2013-06-02 22:34:00,
2013-06-02 17:39:00,85.5,0.0,0.00,South,177,0.0,2.7,0,0.00,,,1.14,WUHU216PEETBRO,2013-06-02 22:39:00,
2013-06-02 17:44:00,87.7,0.0,0.00,South,177,1.9,3.0,0,0.00,,,1.14,WUHU216PEETBRO,2013-06-02 22:44:00,
2013-06-02 17:49:00,86.6,0.0,0.00,WSW,249,3.0,4.2,0,0.00,,,1.14,WUHU216PEETBRO,2013-06-02 22:49:00,
2013-06-02 17:54:00,85.1,0.0,0.00,SSW,199,1.9,4.2,0,0.00,,,1.14,WUHU216PEETBRO,2013-06-02 22:54:00,
2013-06-02 17:59:00,85.5,0.0,0.00,SSW,206,0.0,3.7,0,0.00,,,1.14,WUHU216PEETBRO,2013-06-02 22:59:00,
2013-06-02 18:04:00,84.4,0.0,0.00,West,263,1.4,3.4,0,0.00,,,1.14,WUHU216PEETBRO,2013-06-02 23:04:00,
2013-06-02 18:09:00,82.4,0.0,0.00,SW,231,2.4,3.7,0,0.00,,,1.14,WUHU216PEETBRO,2013-06-02 23:09:00,
2013-06-02 18:14:00,82.4,0.0,0.00,WSW,249,1.5,3.7,0,0.00,,,1.14,WUHU216PEETBRO,2013-06-02 23:14:00,
2013-06-02 18:19:00,82.4,0.0,0.00,West,268,1.2,3.5,0,0.00,,,1.14,WUHU216PEETBRO,2013-06-02 23:19:00,
2013-06-02 18:24:00,81.7,0.0,0.00,SW,235,1.5,2.7,0,0.00,,,1.14,WUHU216PEETBRO,2013-06-02 23:24:00,
2013-06-02 18:29:00,83.5,0.0,0.00,West,278,0.0,2.6,0,0.00,,,1.14,WUHU216PEETBRO,2013-06-02 23:29:00,
2013-06-02 18:34:00,85.5,0.0,0.00,West,278,0.5,2.8,0,0.00,,,1.14,WUHU216PEETBRO,2013-06-02 23:34:00,
2013-06-02 18:39:00,85.1,0.0,0.00,West,278,0.0,2.8,0,0.00,,,1.14,WUHU216PEETBRO,2013-06-02 23:39:00,
2013-06-02 18:44:00,84.5,0.0,0.00,West,278,0.0,0.5,0,0.00,,,1.14,WUHU216PEETBRO,2013-06-02 23:44:00,
2013-06-02 18:49:00,84.6,0.0,0.00,NNW,348,0.0,3.2,0,0.00,,,1.14,WUHU216PEETBRO,2013-06-02 23:49:00,
2013-06-02 18:54:00,84.5,0.0,0.00,NW,309,2.1,3.6,0,0.00,,,1.14,WUHU216PEETBRO,2013-06-02 23:54:00,
2013-06-02 18:59:00,84.6,0.0,0.00,NNW,328,1.5,3.6,0,0.00,,,1.14,WUHU216PEETBRO,2013-06-02 23:59:00,
2013-06-02 19:04:00,82.4,0.0,0.00,North,355,2.9,4.1,0,0.00,,,1.14,WUHU216PEETBRO,2013-06-03 00:04:00,
2013-06-02 19:09:00,81.7,0.0,0.00,NW,306,2.7,4.1,0,0.00,,,1.14,WUHU216PEETBRO,2013-06-03 00:09:00,
2013-06-02 19:14:00,80.5,0.0,0.00,NNW,345,3.0,3.7,0,0.00,,,1.14,WUHU216PEETBRO,2013-06-03 00:14:00,
2013-06-02 19:19:00,80.2,0.0,0.00,NW,309,1.4,3.5,0,0.00,,,1.14,WUHU216PEETBRO,2013-06-03 00:19:00,
2013-06-02 19:24:00,79.5,0.0,0.00,WNW,297,0.0,3.3,0,0.00,,,1.14,WUHU216PEETBRO,2013-06-03 00:24:00,
2013-06-02 19:29:00,79.9,0.0,0.00,NW,310,0.0,2.2,0,0.00,,,1.14,WUHU216PEETBRO,2013-06-03 00:29:00,
2013-06-02 19:34:00,79.1,0.0,0.00,North,359,3.0,3.2,0,0.00,,,1.14,WUHU216PEETBRO,2013-06-03 00:34:00,
2013-06-02 19:39:00,79.2,0.0,0.00,North,1,3.8,4.7,0,0.00,,,1.14,WUHU216PEETBRO,2013-06-03 00:39:00,
2013-06-02 19:44:00,78.1,0.0,0.00,NNW,347,3.5,5.1,0,0.00,,,1.14,WUHU216PEETBRO,2013-06-03 00:44:00,
2013-06-02 19:49:00,77.9,0.0,0.00,North,359,4.2,7.6,0,0.00,,,1.14,WUHU216PEETBRO,2013-06-03 00:49:00,
2013-06-02 19:54:00,78.1,0.0,0.00,North,4,3.9,7.6,0,0.00,,,1.14,WUHU216PEETBRO,2013-06-03 00:54:00,
2013-06-02 19:59:00,76.8,0.0,0.00,North,358,1.8,8.4,0,0.00,,,1.14,WUHU216PEETBRO,2013-06-03 00:59:00,
2013-06-02 20:04:00,76.5,0.0,0.00,North,355,5.4,8.4,0,0.00,,,1.14,WUHU216PEETBRO,2013-06-03 01:04:00,
2013-06-02 20:09:00,76.8,0.0,0.00,North,5,3.8,6.2,0,0.00,,,1.14,WUHU216PEETBRO,2013-06-03 01:09:00,
2013-06-02 20:14:00,75.9,0.0,0.00,North,2,3.4,5.3,0,0.00,,,1.14,WUHU216PEETBRO,2013-06-03 01:14:00,
2013-06-02 20:19:00,76.2,0.0,0.00,North,355,1.9,5.3,0,0.00,,,1.14,WUHU216PEETBRO,2013-06-03 01:19:00,
2013-06-02 20:24:00,75.9,0.0,0.00,North,4,1.1,5.2,0,0.00,,,1.14,WUHU216PEETBRO,2013-06-03 01:24:00,
2013-06-02 20:29:00,75.2,0.0,0.00,NNW,333,2.7,4.7,0,0.00,,,1.14,WUHU216PEETBRO,2013-06-03 01:29:00,
2013-06-02 20:34:00,74.9,0.0,0.00,NNW,341,1.9,4.8,0,0.00,,,1.14,WUHU216PEETBRO,2013-06-03 01:34:00,
2013-06-02 20:37:00,75.2,0.0,0.00,North,7,2.5,5.1,0,0.00,,,1.14,WUHU216PEETBRO,2013-06-03 01:37:00,
2013-06-02 20:42:00,75.2,0.0,0.00,NNE,12,2.1,5.1,0,0.00,,,1.14,WUHU216PEETBRO,2013-06-03 01:42:00,
2013-06-02 20:47:00,74.9,0.0,0.00,NNW,347,1.6,5.7,0,0.00,,,1.14,WUHU216PEETBRO,2013-06-03 01:47:00,
2013-06-02 20:52:00,74.9,0.0,0.00,North,8,2.7,5.7,0,0.00,,,1.14,WUHU216PEETBRO,2013-06-03 01:52:00,
2013-06-02 20:57:00,74.6,0.0,0.00,North,9,5.9,5.9,0,0.00,,,1.14,WUHU216PEETBRO,2013-06-03 01:57:00,
2013-06-02 21:02:00,74.9,0.0,0.00,North,2,1.9,6.8,0,0.00,,,1.14,WUHU216PEETBRO,2013-06-03 02:02:00,
2013-06-02 21:07:00,74.7,0.0,0.00,North,0,4.3,7.0,0,0.00,,,1.14,WUHU216PEETBRO,2013-06-03 02:07:00,
2013-06-02 21:11:00,73.9,0.0,0.00,North,4,3.2,7.0,0,0.00,,,1.14,WUHU216PEETBRO,2013-06-03 02:11:00,
2013-06-02 21:16:00,74.6,0.0,0.00,North,7,3.0,7.0,0,0.00,,,1.14,WUHU216PEETBRO,2013-06-03 02:16:00,
2013-06-02 21:21:00,73.9,0.0,0.00,NE,50,0.0,6.1,0,0.00,,,1.14,WUHU216PEETBRO,2013-06-03 02:21:00,
2013-06-02 21:26:00,73.9,0.0,0.00,ENE,67,0.9,5.2,0,0.00,,,1.14,WUHU216PEETBRO,2013-06-03 02:26:00,
2013-06-02 21:31:00,74.2,0.0,0.00,SE,124,1.9,4.3,0,0.00,,,1.14,WUHU216PEETBRO,2013-06-03 02:31:00,
2013-06-02 21:36:00,73.5,0.0,0.00,North,359,3.9,5.2,0,0.00,,,1.14,WUHU216PEETBRO,2013-06-03 02:36:00,
2013-06-02 21:41:00,73.5,0.0,0.00,NNE,26,2.1,5.7,0,0.00,,,1.14,WUHU216PEETBRO,2013-06-03 02:41:00,
2013-06-02 21:46:00,73.3,0.0,0.00,North,11,3.7,5.7,0,0.00,,,1.14,WUHU216PEETBRO,2013-06-03 02:46:00,
2013-06-02 21:51:00,73.6,0.0,0.00,North,1,2.3,5.5,0,0.00,,,1.14,WUHU216PEETBRO,2013-06-03 02:51:00,
2013-06-02 21:56:00,73.3,0.0,0.00,North,359,4.3,5.2,0,0.00,,,1.14,WUHU216PEETBRO,2013-06-03 02:56:00,
2013-06-02 22:01:00,73.0,0.0,0.00,North,359,4.6,5.2,0,0.00,,,1.14,WUHU216PEETBRO,2013-06-03 03:01:00,
2013-06-02 22:06:00,73.3,0.0,0.00,North,9,2.3,6.0,0,0.00,,,1.14,WUHU216PEETBRO,2013-06-03 03:06:00,
2013-06-02 22:11:00,73.3,0.0,0.00,North,358,4.2,6.0,0,0.00,,,1.14,WUHU216PEETBRO,2013-06-03 03:11:00,
2013-06-02 22:16:00,73.3,0.0,0.00,NNE,19,3.3,5.7,0,0.00,,,1.14,WUHU216PEETBRO,2013-06-03 03:16:00,
2013-06-02 22:21:00,73.0,0.0,0.00,NNW,344,1.7,5.7,0,0.00,,,1.14,WUHU216PEETBRO,2013-06-03 03:21:00,
2013-06-02 22:26:00,72.3,0.0,0.00,NNW,348,0.0,4.6,0,0.00,,,1.14,WUHU216PEETBRO,2013-06-03 03:26:00,
2013-06-02 22:31:00,72.6,0.0,0.00,NNW,348,0.0,2.6,0,0.00,,,1.14,WUHU216PEETBRO,2013-06-03 03:31:00,
2013-06-02 22:36:00,72.3,0.0,0.00,North,0,0.0,2.3,0,0.00,,,1.14,WUHU216PEETBRO,2013-06-03 03:36:00,
2013-06-02 22:41:00,72.3,0.0,0.00,North,359,3.4,3.4,0,0.00,,,1.14,WUHU216PEETBRO,2013-06-03 03:41:00,
2013-06-02 22:46:00,72.0,0.0,0.00,North,350,2.1,3.4,0,0.00,,,1.14,WUHU216PEETBRO,2013-06-03 03:46:00,
2013-06-02 22:51:00,71.7,0.0,0.00,North,355,1.2,4.0,0,0.00,,,1.14,WUHU216PEETBRO,2013-06-03 03:51:00,
2013-06-02 22:56:00,71.4,0.0,0.00,NNE,12,0.0,4.0,0,0.00,,,1.14,WUHU216PEETBRO,2013-06-03 03:56:00,
2013-06-02 23:01:00,71.1,0.0,0.00,NNE,12,0.0,2.3,0,0.00,,,1.14,WUHU216PEETBRO,2013-06-03 04:01:00,
2013-06-02 23:06:00,71.4,0.0,0.00,NNE,12,0.0,0.0,0,0.00,,,1.14,WUHU216PEETBRO,2013-06-03 04:06:00,
2013-06-02 23:11:00,71.4,0.0,0.00,NNE,12,0.0,0.0,0,0.00,,,1.14,WUHU216PEETBRO,2013-06-03 04:11:00,
2013-06-02 23:16:00,71.3,0.0,0.00,NNE,12,0.0,0.0,0,0.00,,,1.14,WUHU216PEETBRO,2013-06-03 04:16:00,
2013-06-02 23:21:00,71.1,0.0,0.00,NNE,12,0.0,0.0,0,0.00,,,1.14,WUHU216PEETBRO,2013-06-03 04:21:00,
2013-06-02 23:26:00,71.0,0.0,0.00,NNE,12,0.0,0.0,0,0.00,,,1.14,WUHU216PEETBRO,2013-06-03 04:26:00,
2013-06-02 23:31:00,71.4,0.0,0.00,NNE,12,0.0,0.0,0,0.00,,,1.14,WUHU216PEETBRO,2013-06-03 04:31:00,
2013-06-02 23:36:00,70.8,0.0,0.00,NNE,12,0.0,0.0,0,0.00,,,1.14,WUHU216PEETBRO,2013-06-03 04:36:00,
2013-06-02 23:41:00,70.5,0.0,0.00,NNE,12,0.0,0.0,0,0.00,,,1.14,WUHU216PEETBRO,2013-06-03 04:41:00,
2013-06-02 23:46:00,70.5,0.0,0.00,NNE,12,0.0,0.0,0,0.00,,,1.14,WUHU216PEETBRO,2013-06-03 04:46:00,
2013-06-02 23:51:00,70.5,0.0,0.00,NNE,12,0.0,0.0,0,0.00,,,1.14,WUHU216PEETBRO,2013-06-03 04:51:00,
2013-06-02 23:56:00,70.5,0.0,0.00,NNE,12,0.0,0.0,0,0.00,,,1.14,WUHU216PEETBRO,2013-06-03 04:56:00,